Time,TemperatureF,DewpointF,PressureIn,WindDirection,WindDirectionDegrees,WindSpeedMPH,WindSpeedGustMPH,Humidity,HourlyPrecipIn,Conditions,Clouds,dailyrainin,SoftwareType,DateUTC
2013-02-26 00:01:00,39.0,36.0,-100.00,SW,225,5.0,10.0,87,-99.99,,,-99.99,,2013-02-26 08:01:00,
2013-02-26 00:11:00,39.0,35.0,-100.00,South,180,3.0,7.0,87,-99.99,,,-99.99,,2013-02-26 08:11:00,
2013-02-26 00:21:00,39.0,35.0,-100.00,South,180,3.0,7.0,87,-99.99,,,-99.99,,2013-02-26 08:21:00,
2013-02-26 00:31:00,39.0,35.0,-100.00,SW,225,6.0,9.0,86,-99.99,,,-99.99,,2013-02-26 08:31:00,
2013-02-26 00:42:00,39.0,35.0,-100.00,SW,225,6.0,9.0,86,-99.99,,,-99.99,,2013-02-26 08:42:00,
2013-02-26 00:52:00,39.0,35.0,-100.00,SW,225,6.0,9.0,86,-99.99,,,-99.99,,2013-02-26 08:52:00,
2013-02-26 01:01:00,39.0,35.0,-100.00,SW,225,4.0,10.0,85,-99.99,,,-99.99,,2013-02-26 09:01:00,
2013-02-26 01:11:00,39.0,35.0,-100.00,SW,225,5.0,9.0,85,-99.99,,,-99.99,,2013-02-26 09:11:00,
2013-02-26 01:21:00,39.0,35.0,-100.00,SW,225,5.0,9.0,85,-99.99,,,-99.99,,2013-02-26 09:21:00,
2013-02-26 01:31:00,39.0,36.0,-100.00,SW,225,4.0,10.0,88,-99.99,,,-99.99,,2013-02-26 09:31:00,
2013-02-26 01:43:00,38.0,36.0,-100.00,SW,225,6.0,9.0,89,-99.99,,,-99.99,,2013-02-26 09:43:00,
2013-02-26 01:52:00,38.0,36.0,-100.00,SW,225,6.0,9.0,89,-99.99,,,-99.99,,2013-02-26 09:52:00,
2013-02-26 02:01:00,38.0,36.0,-100.00,SW,225,3.0,8.0,92,-99.99,,,-99.99,,2013-02-26 10:01:00,
2013-02-26 02:11:00,37.0,36.0,-100.00,South,180,4.0,9.0,93,-99.99,,,-99.99,,2013-02-26 10:11:00,
2013-02-26 02:21:00,37.0,36.0,-100.00,South,180,4.0,9.0,93,-99.99,,,-99.99,,2013-02-26 10:21:00,
2013-02-26 02:31:00,37.0,36.0,-100.00,South,180,2.0,6.0,93,-99.99,,,-99.99,,2013-02-26 10:31:00,
2013-02-26 02:41:00,38.0,37.0,-100.00,SW,225,4.0,9.0,94,-99.99,,,-99.99,,2013-02-26 10:41:00,
2013-02-26 02:52:00,38.0,37.0,-100.00,SW,225,4.0,9.0,94,-99.99,,,-99.99,,2013-02-26 10:52:00,
2013-02-26 03:01:00,38.0,36.0,-100.00,SW,225,4.0,10.0,93,-99.99,,,-99.99,,2013-02-26 11:01:00,
2013-02-26 03:11:00,37.0,36.0,-100.00,North,0,1.0,4.0,94,-99.99,,,-99.99,,2013-02-26 11:11:00,
2013-02-26 03:21:00,37.0,36.0,-100.00,North,0,1.0,4.0,94,-99.99,,,-99.99,,2013-02-26 11:21:00,
2013-02-26 03:31:00,36.0,35.0,-100.00,SE,135,1.0,3.0,95,-99.99,,,-99.99,,2013-02-26 11:31:00,
2013-02-26 03:41:00,37.0,36.0,-100.00,South,180,1.0,3.0,96,-99.99,,,-99.99,,2013-02-26 11:41:00,
2013-02-26 03:52:00,38.0,37.0,-100.00,SW,225,4.0,7.0,95,-99.99,,,-99.99,,2013-02-26 11:52:00,
2013-02-26 04:01:00,38.0,37.0,-100.00,SW,225,4.0,7.0,95,-99.99,,,-99.99,,2013-02-26 12:01:00,
2013-02-26 04:11:00,38.0,36.0,-100.00,NW,315,1.0,7.0,94,-99.99,,,-99.99,,2013-02-26 12:11:00,
2013-02-26 04:22:00,38.0,36.0,-100.00,NW,315,1.0,7.0,94,-99.99,,,-99.99,,2013-02-26 12:22:00,
2013-02-26 04:32:00,37.0,36.0,-100.00,SW,225,3.0,4.0,96,-99.99,,,-99.99,,2013-02-26 12:32:00,
2013-02-26 04:42:00,37.0,36.0,-100.00,SW,225,3.0,7.0,96,-99.99,,,-99.99,,2013-02-26 12:42:00,
2013-02-26 04:53:00,37.0,36.0,-100.00,SW,225,3.0,7.0,96,-99.99,,,-99.99,,2013-02-26 12:53:00,
2013-02-26 05:01:00,38.0,36.0,-100.00,SW,225,4.0,6.0,95,-99.99,,,-99.99,,2013-02-26 13:01:00,
2013-02-26 05:11:00,38.0,36.0,-100.00,SW,225,3.0,8.0,94,-99.99,,,-99.99,,2013-02-26 13:11:00,
2013-02-26 05:21:00,38.0,36.0,-100.00,SW,225,3.0,8.0,94,-99.99,,,-99.99,,2013-02-26 13:21:00,
2013-02-26 05:31:00,37.0,36.0,-100.00,SW,225,0.0,4.0,95,-99.99,,,-99.99,,2013-02-26 13:31:00,
2013-02-26 05:42:00,37.0,36.0,-100.00,North,0,1.0,2.0,96,-99.99,,,-99.99,,2013-02-26 13:42:00,
2013-02-26 05:52:00,37.0,36.0,-100.00,South,180,1.0,2.0,96,-99.99,,,-99.99,,2013-02-26 13:52:00,
2013-02-26 06:01:00,37.0,36.0,-100.00,South,180,1.0,2.0,96,-99.99,,,-99.99,,2013-02-26 14:01:00,
2013-02-26 06:11:00,36.0,36.0,-100.00,East,90,0.0,2.0,97,-99.99,,,-99.99,,2013-02-26 14:11:00,
2013-02-26 06:21:00,36.0,36.0,-100.00,East,90,0.0,2.0,97,-99.99,,,-99.99,,2013-02-26 14:21:00,
2013-02-26 06:31:00,36.0,35.0,-100.00,West,270,0.0,2.0,97,-99.99,,,-99.99,,2013-02-26 14:31:00,
2013-02-26 06:42:00,36.0,36.0,-100.00,NE,45,0.0,1.0,97,-99.99,,,-99.99,,2013-02-26 14:42:00,
2013-02-26 06:52:00,36.0,36.0,-100.00,NE,45,0.0,1.0,97,-99.99,,,-99.99,,2013-02-26 14:52:00,
2013-02-26 07:02:00,36.0,36.0,-100.00,East,90,0.0,1.0,98,-99.99,,,-99.99,,2013-02-26 15:02:00,
2013-02-26 07:11:00,36.0,36.0,-100.00,North,0,1.0,3.0,98,-99.99,,,-99.99,,2013-02-26 15:11:00,
2013-02-26 07:21:00,36.0,36.0,-100.00,North,0,1.0,3.0,98,-99.99,,,-99.99,,2013-02-26 15:21:00,
2013-02-26 07:32:00,36.0,36.0,-100.00,NE,45,0.0,1.0,98,-99.99,,,-99.99,,2013-02-26 15:32:00,
2013-02-26 07:41:00,37.0,36.0,-100.00,NW,315,0.0,3.0,98,-99.99,,,-99.99,,2013-02-26 15:41:00,
2013-02-26 07:52:00,37.0,36.0,-100.00,NW,315,0.0,3.0,98,-99.99,,,-99.99,,2013-02-26 15:52:00,
2013-02-26 08:01:00,36.0,36.0,-100.00,East,90,1.0,2.0,98,-99.99,,,-99.99,,2013-02-26 16:01:00,
2013-02-26 08:11:00,37.0,37.0,-100.00,SE,135,1.0,2.0,99,-99.99,,,-99.99,,2013-02-26 16:11:00,
2013-02-26 08:22:00,37.0,37.0,-100.00,SE,135,1.0,2.0,99,-99.99,,,-99.99,,2013-02-26 16:22:00,
2013-02-26 08:31:00,37.0,37.0,-100.00,North,0,0.0,2.0,99,-99.99,,,-99.99,,2013-02-26 16:31:00,
2013-02-26 08:42:00,37.0,37.0,-100.00,North,0,0.0,3.0,99,-99.99,,,-99.99,,2013-02-26 16:42:00,
2013-02-26 08:52:00,37.0,37.0,-100.00,North,0,0.0,3.0,99,-99.99,,,-99.99,,2013-02-26 16:52:00,
2013-02-26 09:01:00,38.0,38.0,-100.00,NE,45,0.0,2.0,99,-99.99,,,-99.99,,2013-02-26 17:01:00,
2013-02-26 09:11:00,39.0,39.0,-100.00,NE,45,1.0,2.0,99,-99.99,,,-99.99,,2013-02-26 17:11:00,
2013-02-26 09:21:00,39.0,39.0,-100.00,NE,45,1.0,2.0,99,-99.99,,,-99.99,,2013-02-26 17:21:00,
2013-02-26 09:32:00,39.0,39.0,-100.00,NE,45,1.0,3.0,99,-99.99,,,-99.99,,2013-02-26 17:32:00,
2013-02-26 09:41:00,39.0,38.0,-100.00,North,0,1.0,4.0,98,-99.99,,,-99.99,,2013-02-26 17:41:00,
2013-02-26 09:52:00,39.0,38.0,-100.00,North,0,1.0,4.0,98,-99.99,,,-99.99,,2013-02-26 17:52:00,
2013-02-26 10:01:00,39.0,39.0,-100.00,North,0,1.0,4.0,98,-99.99,,,-99.99,,2013-02-26 18:01:00,
2013-02-26 10:12:00,40.0,39.0,-100.00,North,0,2.0,3.0,97,-99.99,,,-99.99,,2013-02-26 18:12:00,
2013-02-26 10:21:00,40.0,39.0,-100.00,North,0,2.0,3.0,97,-99.99,,,-99.99,,2013-02-26 18:21:00,
2013-02-26 10:32:00,40.0,39.0,-100.00,NW,315,2.0,3.0,95,-99.99,,,-99.99,,2013-02-26 18:32:00,
2013-02-26 10:42:00,41.0,39.0,-100.00,NW,315,1.0,3.0,92,-99.99,,,-99.99,,2013-02-26 18:42:00,
2013-02-26 10:52:00,41.0,39.0,-100.00,NW,315,1.0,3.0,92,-99.99,,,-99.99,,2013-02-26 18:52:00,
2013-02-26 11:01:00,41.0,39.0,-100.00,NW,315,1.0,3.0,92,-99.99,,,-99.99,,2013-02-26 19:01:00,
2013-02-26 11:11:00,42.0,39.0,-100.00,NE,45,1.0,3.0,87,-99.99,,,-99.99,,2013-02-26 19:11:00,
2013-02-26 11:22:00,42.0,39.0,-100.00,NE,45,1.0,3.0,87,-99.99,,,-99.99,,2013-02-26 19:22:00,
2013-02-26 11:31:00,43.0,37.0,-100.00,East,90,1.0,3.0,80,-99.99,,,-99.99,,2013-02-26 19:31:00,
2013-02-26 11:41:00,44.0,36.0,-100.00,East,90,1.0,4.0,73,-99.99,,,-99.99,,2013-02-26 19:41:00,
2013-02-26 11:52:00,44.0,36.0,-100.00,East,90,1.0,4.0,73,-99.99,,,-99.99,,2013-02-26 19:52:00,
2013-02-26 12:01:00,44.0,35.0,-100.00,North,0,4.0,4.0,70,-99.99,,,-99.99,,2013-02-26 20:01:00,
2013-02-26 12:11:00,44.0,36.0,-100.00,NW,315,1.0,4.0,72,-99.99,,,-99.99,,2013-02-26 20:11:00,
2013-02-26 12:21:00,44.0,36.0,-100.00,NW,315,1.0,4.0,72,-99.99,,,-99.99,,2013-02-26 20:21:00,
2013-02-26 12:31:00,44.0,36.0,-100.00,NW,315,1.0,4.0,72,-99.99,,,-99.99,,2013-02-26 20:31:00,
2013-02-26 13:31:00,46.0,35.0,-100.00,South,180,2.0,4.0,65,-99.99,,,-99.99,,2013-02-26 21:31:00,
2013-02-26 13:41:00,46.0,35.0,-100.00,South,180,2.0,4.0,65,-99.99,,,-99.99,,2013-02-26 21:41:00,
2013-02-26 14:01:00,46.0,33.0,-100.00,NW,315,2.0,3.0,61,-99.99,,,-99.99,,2013-02-26 22:01:00,
2013-02-26 14:11:00,46.0,33.0,-100.00,North,0,1.0,4.0,60,-99.99,,,-99.99,,2013-02-26 22:11:00,
2013-02-26 14:21:00,46.0,33.0,-100.00,North,0,1.0,4.0,60,-99.99,,,-99.99,,2013-02-26 22:21:00,
2013-02-26 14:31:00,46.0,33.0,-100.00,East,90,3.0,5.0,60,-99.99,,,-99.99,,2013-02-26 22:31:00,
2013-02-26 14:41:00,46.0,34.0,-100.00,North,0,4.0,7.0,62,-99.99,,,-99.99,,2013-02-26 22:41:00,
2013-02-26 14:52:00,46.0,34.0,-100.00,North,0,4.0,7.0,62,-99.99,,,-99.99,,2013-02-26 22:52:00,
2013-02-26 15:01:00,46.0,33.0,-100.00,NW,315,2.0,4.0,60,-99.99,,,-99.99,,2013-02-26 23:01:00,
2013-02-26 15:11:00,46.0,34.0,-100.00,North,0,1.0,3.0,62,-99.99,,,-99.99,,2013-02-26 23:11:00,
2013-02-26 15:21:00,46.0,34.0,-100.00,North,0,1.0,3.0,62,-99.99,,,-99.99,,2013-02-26 23:21:00,
2013-02-26 15:31:00,46.0,33.0,-100.00,East,90,2.0,4.0,60,-99.99,,,-99.99,,2013-02-26 23:31:00,
2013-02-26 15:41:00,47.0,34.0,-100.00,NW,315,1.0,4.0,62,-99.99,,,-99.99,,2013-02-26 23:41:00,
2013-02-26 15:52:00,47.0,34.0,-100.00,NW,315,1.0,4.0,62,-99.99,,,-99.99,,2013-02-26 23:52:00,
2013-02-26 16:01:00,47.0,34.0,-100.00,NW,315,1.0,4.0,62,-99.99,,,-99.99,,2013-02-27 00:01:00,
2013-02-26 16:11:00,47.0,35.0,-100.00,East,90,2.0,4.0,61,-99.99,,,-99.99,,2013-02-27 00:11:00,
2013-02-26 16:21:00,47.0,35.0,-100.00,East,90,2.0,4.0,61,-99.99,,,-99.99,,2013-02-27 00:21:00,
2013-02-26 16:31:00,47.0,35.0,-100.00,East,90,3.0,4.0,62,-99.99,,,-99.99,,2013-02-27 00:31:00,
2013-02-26 16:41:00,47.0,36.0,-100.00,East,90,3.0,8.0,64,-99.99,,,-99.99,,2013-02-27 00:41:00,
2013-02-26 16:52:00,47.0,36.0,-100.00,East,90,3.0,8.0,64,-99.99,,,-99.99,,2013-02-27 00:52:00,
2013-02-26 17:01:00,47.0,35.0,-100.00,North,0,1.0,3.0,63,-99.99,,,-99.99,,2013-02-27 01:01:00,
2013-02-26 17:11:00,47.0,37.0,-100.00,East,90,1.0,3.0,69,-99.99,,,-99.99,,2013-02-27 01:11:00,
2013-02-26 17:21:00,47.0,37.0,-100.00,East,90,1.0,3.0,69,-99.99,,,-99.99,,2013-02-27 01:21:00,
2013-02-26 17:31:00,45.0,39.0,-100.00,SE,135,1.0,3.0,78,-99.99,,,-99.99,,2013-02-27 01:31:00,
2013-02-26 17:41:00,45.0,39.0,-100.00,SE,135,1.0,3.0,81,-99.99,,,-99.99,,2013-02-27 01:41:00,
2013-02-26 17:52:00,44.0,40.0,-100.00,NW,315,1.0,3.0,84,-99.99,,,-99.99,,2013-02-27 01:52:00,
2013-02-26 18:01:00,44.0,40.0,-100.00,NW,315,1.0,3.0,84,-99.99,,,-99.99,,2013-02-27 02:01:00,
2013-02-26 18:13:00,43.0,39.0,-100.00,East,90,1.0,2.0,85,-99.99,,,-99.99,,2013-02-27 02:13:00,
2013-02-26 18:22:00,43.0,39.0,-100.00,East,90,1.0,2.0,85,-99.99,,,-99.99,,2013-02-27 02:22:00,
2013-02-26 18:32:00,43.0,39.0,-100.00,SE,135,1.0,3.0,86,-99.99,,,-99.99,,2013-02-27 02:32:00,
2013-02-26 18:42:00,42.0,39.0,-100.00,East,90,2.0,5.0,87,-99.99,,,-99.99,,2013-02-27 02:42:00,
2013-02-26 18:52:00,42.0,38.0,-100.00,South,180,1.0,1.0,88,-99.99,,,-99.99,,2013-02-27 02:52:00,
2013-02-26 19:01:00,42.0,38.0,-100.00,South,180,1.0,1.0,88,-99.99,,,-99.99,,2013-02-27 03:01:00,
2013-02-26 19:11:00,42.0,38.0,-100.00,East,90,1.0,3.0,87,-99.99,,,-99.99,,2013-02-27 03:11:00,
2013-02-26 19:21:00,42.0,38.0,-100.00,East,90,1.0,3.0,87,-99.99,,,-99.99,,2013-02-27 03:21:00,
2013-02-26 19:31:00,42.0,38.0,-100.00,East,90,1.0,3.0,86,-99.99,,,-99.99,,2013-02-27 03:31:00,
2013-02-26 19:41:00,41.0,38.0,-100.00,East,90,1.0,3.0,88,-99.99,,,-99.99,,2013-02-27 03:41:00,
2013-02-26 19:52:00,41.0,38.0,-100.00,NE,45,1.0,3.0,88,-99.99,,,-99.99,,2013-02-27 03:52:00,
2013-02-26 20:01:00,41.0,38.0,-100.00,NE,45,1.0,3.0,88,-99.99,,,-99.99,,2013-02-27 04:01:00,
2013-02-26 20:11:00,41.0,38.0,-100.00,East,90,2.0,4.0,89,-99.99,,,-99.99,,2013-02-27 04:11:00,
2013-02-26 20:21:00,41.0,38.0,-100.00,East,90,2.0,4.0,89,-99.99,,,-99.99,,2013-02-27 04:21:00,
2013-02-26 20:31:00,41.0,38.0,-100.00,NE,45,1.0,3.0,90,-99.99,,,-99.99,,2013-02-27 04:31:00,
2013-02-26 20:41:00,41.0,38.0,-100.00,SE,135,1.0,2.0,91,-99.99,,,-99.99,,2013-02-27 04:41:00,
2013-02-26 20:52:00,41.0,39.0,-100.00,SE,135,1.0,3.0,91,-99.99,,,-99.99,,2013-02-27 04:52:00,
2013-02-26 21:01:00,41.0,39.0,-100.00,SE,135,1.0,3.0,91,-99.99,,,-99.99,,2013-02-27 05:01:00,
2013-02-26 21:11:00,41.0,38.0,-100.00,SE,135,1.0,4.0,91,-99.99,,,-99.99,,2013-02-27 05:11:00,
2013-02-26 21:22:00,41.0,38.0,-100.00,SE,135,1.0,4.0,91,-99.99,,,-99.99,,2013-02-27 05:22:00,
2013-02-26 21:32:00,41.0,38.0,-100.00,SE,135,1.0,2.0,92,-99.99,,,-99.99,,2013-02-27 05:32:00,
2013-02-26 21:41:00,40.0,38.0,-100.00,South,180,1.0,2.0,93,-99.99,,,-99.99,,2013-02-27 05:41:00,
2013-02-26 21:52:00,40.0,38.0,-100.00,South,180,1.0,2.0,93,-99.99,,,-99.99,,2013-02-27 05:52:00,
2013-02-26 22:02:00,40.0,38.0,-100.00,South,180,1.0,2.0,93,-99.99,,,-99.99,,2013-02-27 06:02:00,
2013-02-26 22:11:00,40.0,38.0,-100.00,South,180,1.0,2.0,93,-99.99,,,-99.99,,2013-02-27 06:11:00,
2013-02-26 22:21:00,40.0,38.0,-100.00,South,180,1.0,2.0,93,-99.99,,,-99.99,,2013-02-27 06:21:00,
2013-02-26 22:32:00,40.0,38.0,-100.00,SE,135,0.0,2.0,94,-99.99,,,-99.99,,2013-02-27 06:32:00,
2013-02-26 22:41:00,40.0,38.0,-100.00,NW,315,0.0,2.0,94,-99.99,,,-99.99,,2013-02-27 06:41:00,
2013-02-26 22:52:00,40.0,39.0,-100.00,NE,45,1.0,2.0,95,-99.99,,,-99.99,,2013-02-27 06:52:00,
2013-02-26 23:01:00,40.0,39.0,-100.00,NE,45,1.0,2.0,95,-99.99,,,-99.99,,2013-02-27 07:01:00,
2013-02-26 23:12:00,40.0,39.0,-100.00,SE,135,0.0,1.0,94,-99.99,,,-99.99,,2013-02-27 07:12:00,
2013-02-26 23:21:00,40.0,39.0,-100.00,SE,135,0.0,1.0,94,-99.99,,,-99.99,,2013-02-27 07:21:00,
2013-02-26 23:31:00,40.0,38.0,-100.00,SE,135,0.0,1.0,94,-99.99,,,-99.99,,2013-02-27 07:31:00,
2013-02-26 23:41:00,40.0,38.0,-100.00,SE,135,1.0,1.0,95,-99.99,,,-99.99,,2013-02-27 07:41:00,
2013-02-26 23:52:00,40.0,38.0,-100.00,SE,135,1.0,1.0,95,-99.99,,,-99.99,,2013-02-27 07:52:00,